Baker, MT

9:56 PM MDT on July 21, 2017 (GMT -0600)
Baker Municipal

Weather History for KBHK - March, 2013

Change the Weather History Date:

Sunday, March 17, 2013

  Actual Average Record
Temperature  
Mean Temperature 20 °F -  
Max Temperature 33 °F 39 °F 73 °F (2012)
Min Temperature 7 °F 26 °F 7 °F (2013)
Degree Days  
Heating Degree Days 45    
Moisture  
Dew Point 17 °F    
Average Humidity 79    
Maximum Humidity 88    
Minimum Humidity 67    
Precipitation  
Precipitation 0.03 in - - ()
Sea Level Pressure  
Sea Level Pressure 29.61 in    
Wind  
Wind Speed 25 mph (SSW)    
Max Wind Speed 38 mph    
Max Gust Speed 54 mph    
Visibility 5 miles    
Events Snow    
Averages and records for this station are not official NWS values.
T = Trace of Precipitation, MM = Missing Value Source: NWS Daily Summary

Daily Weather History Graph

Daily Weather History Graph

Search for Another Location

Airport or City:

Trip Planner

Search our weather history database for the weather conditions in past years. The results will help you decide how hot, cold, wet, or windy it might be!

Date:

Astronomy

Mar. 17, 2013 Rise Set
Actual Time 7:05 AM MDT 7:05 PM MDT
Civil Twilight 6:35 AM MDT 7:35 PM MDT
Nautical Twilight 6:00 AM MDT 8:11 PM MDT
Astronomical Twilight 5:24 AM MDT 8:47 PM MDT
Moon 10:00 AM MDT (3/17) 12:34 AM MDT (3/17)
Length of Visible Light 13h 00m
Length of Day
12h 00m
Waxing Crescent, 32% of the Moon is Illuminated
Mar 17
Waxing Crescent
Mar 19
First Quarter
Mar 27
Full
Apr 2
Last Quarter
Apr 10
New

Hourly Weather History & Observations

Time (MDT) Temp. Windchill Dew Point Humidity Pressure Visibility Wind Dir Wind Speed Gust Speed Precip Events Conditions
12:15 AM 23.0 °F 6.6 °F 15.8 °F 74% 29.81 in 10.0 mi SE 25.3 mph 32.2 mph N/A   Mostly Cloudy
12:21 AM 23.0 °F 6.0 °F 15.8 °F 74% 29.80 in 10.0 mi SE 27.6 mph 33.4 mph N/A   Mostly Cloudy
12:51 AM 23.0 °F 5.7 °F 16.0 °F 74% 29.89 in 10.0 mi SE 28.8 mph 35.7 mph N/A   Overcast
1:51 AM 24.1 °F 7.7 °F 18.0 °F 77% 29.85 in 10.0 mi SE 26.5 mph 34.5 mph N/A   Overcast
2:51 AM 24.1 °F 7.1 °F 18.0 °F 77% 29.81 in 10.0 mi SSE 28.8 mph 36.8 mph N/A   Overcast
3:01 AM 24.8 °F 9.0 °F 17.6 °F 74% 29.71 in 10.0 mi SE 25.3 mph 36.8 mph N/A   Overcast
3:51 AM 24.1 °F 8.0 °F 19.0 °F 81% 29.77 in 10.0 mi SE 25.3 mph 38.0 mph N/A   Overcast
4:09 AM 24.8 °F 9.3 °F 19.4 °F 80% 29.66 in 4.0 mi SE 24.2 mph 36.8 mph N/A   Overcast
4:51 AM 24.1 °F 8.7 °F 21.0 °F 88% 29.72 in 4.0 mi SE 23.0 mph 32.2 mph N/A   Overcast
5:49 AM 24.8 °F 10.0 °F 21.2 °F 86% 29.58 in 2.5 mi SE 21.9 mph 34.5 mph N/A   Overcast
5:51 AM 25.0 °F 9.5 °F 21.0 °F 85% 29.68 in 3.0 mi SE 24.2 mph 31.1 mph N/A   Overcast
5:57 AM 24.8 °F 9.0 °F 21.2 °F 86% 29.58 in 2.5 mi SE 25.3 mph 34.5 mph N/A   Overcast
6:15 AM 24.8 °F 9.0 °F 21.2 °F 86% 29.56 in 3.0 mi SE 25.3 mph 31.1 mph N/A   Overcast
6:51 AM 25.0 °F 8.6 °F 21.0 °F 85% 29.62 in 3.0 mi SE 27.6 mph 32.2 mph N/A   Overcast
7:03 AM 24.8 °F 9.0 °F 21.2 °F 86% 29.53 in 2.5 mi SE 25.3 mph 32.2 mph N/A   Overcast
7:15 AM 24.8 °F 10.0 °F 19.4 °F 80% 29.52 in 1.5 mi SE 21.9 mph 33.4 mph N/A   Overcast
7:51 AM 23.0 °F 4.1 °F 19.0 °F 85% 29.60 in 1.8 mi SE 35.7 mph 41.4 mph N/A   Overcast
7:58 AM 23.0 °F 4.6 °F 19.4 °F 86% 29.49 in 2.0 mi SE 33.4 mph 41.4 mph N/A   Overcast
8:29 AM 23.0 °F 4.9 °F 19.4 °F 86% 29.48 in 3.0 mi SE 32.2 mph 41.4 mph N/A   Overcast
8:51 AM 23.0 °F 6.0 °F 19.0 °F 85% 29.57 in 6.0 mi SE 27.6 mph 41.4 mph N/A   Overcast
9:43 AM 24.8 °F 11.9 °F 19.4 °F 80% 29.48 in 10.0 mi SE 16.1 mph 25.3 mph N/A   Overcast
9:51 AM 24.1 °F 9.8 °F 19.9 °F 84% 29.57 in 10.0 mi SE 19.6 mph 25.3 mph N/A   Overcast
10:51 AM 25.0 °F 15.5 °F 21.0 °F 85% 29.55 in 10.0 mi ESE 9.2 mph - N/A   Overcast
11:51 AM 27.0 °F 15.2 °F 23.0 °F 85% 29.51 in 10.0 mi SE 15.0 mph - N/A   Overcast
12:51 PM 28.9 °F 18.6 °F 24.1 °F 82% 29.47 in 10.0 mi SE 12.7 mph - N/A   Overcast
1:05 PM 30.2 °F 20.2 °F 24.8 °F 80% 29.39 in 10.0 mi SE 12.7 mph - N/A   Overcast
1:35 PM 30.2 °F 21.3 °F 24.8 °F 80% 29.38 in 10.0 mi SE 10.4 mph - 0.00 in   Overcast
1:51 PM 30.0 °F 24.1 °F 25.0 °F 82% 29.46 in 6.0 mi SE 5.8 mph - 0.00 in Snow Light Snow
1:58 PM 30.2 °F 23.4 °F 24.8 °F 80% 29.38 in 3.0 mi SE 6.9 mph - 0.00 in Snow Light Snow
2:03 PM 30.2 °F 24.3 °F 24.8 °F 80% 29.38 in 1.8 mi SSE 5.8 mph - 0.01 in Snow Light Snow
2:09 PM 30.2 °F 25.4 °F 26.6 °F 86% 29.38 in 1.0 mi SSE 4.6 mph - 0.01 in Snow Light Snow
2:14 PM 30.2 °F 25.4 °F 24.8 °F 80% 29.38 in 0.5 mi SE 4.6 mph - 0.03 in Snow Snow
3:12 PM 33.8 °F 22.8 °F 28.4 °F 81% 29.40 in 0.8 mi WNW 18.4 mph 23.0 mph 0.01 in Snow Light Snow
3:31 PM 30.2 °F 14.9 °F 24.8 °F 80% 29.42 in 0.5 mi WNW 31.1 mph 42.6 mph 0.03 in Snow Snow
3:51 PM 28.0 °F 12.0 °F 23.0 °F 81% 29.53 in 0.5 mi WNW 31.1 mph 43.7 mph 0.03 in Snow Snow
3:59 PM 28.4 °F 11.2 °F 21.2 °F 74% 29.46 in 0.5 mi NW 38.0 mph 49.5 mph 0.00 in Snow Snow
4:32 PM 26.6 °F 10.6 °F 19.4 °F 74% 29.48 in 0.8 mi NW 28.8 mph 54.1 mph 0.00 in Snow Light Snow
4:38 PM 26.6 °F 10.6 °F 19.4 °F 74% 29.48 in 1.0 mi NW 28.8 mph 42.6 mph 0.00 in Snow Light Snow
4:46 PM 24.8 °F 7.6 °F 19.4 °F 80% 29.49 in 0.8 mi NW 31.1 mph 41.4 mph 0.00 in Snow Light Snow
4:51 PM 25.0 °F 7.6 °F 19.9 °F 81% 29.58 in 0.5 mi NW 32.2 mph 41.4 mph 0.00 in Snow Snow
5:15 PM 26.6 °F 12.7 °F 19.4 °F 74% 29.52 in 1.0 mi NW 20.7 mph 36.8 mph 0.00 in Snow Light Snow
5:19 PM 24.8 °F 6.6 °F 19.4 °F 80% 29.52 in 0.8 mi NW 35.7 mph 47.2 mph 0.00 in Snow Light Snow
5:24 PM 24.8 °F 6.8 °F 19.4 °F 80% 29.53 in 0.8 mi NW 34.5 mph 47.2 mph 0.00 in Snow Light Snow
5:51 PM 21.0 °F 1.7 °F 15.1 °F 78% 29.67 in 0.8 mi WNW 34.5 mph 43.7 mph 0.00 in Snow Light Snow
6:03 PM 19.4 °F 0.5 °F 15.8 °F 86% 29.58 in 1.0 mi NW 29.9 mph 43.7 mph 0.00 in Snow Light Snow
6:14 PM 19.4 °F 1.1 °F 15.8 °F 86% 29.59 in 1.0 mi NW 27.6 mph 40.3 mph 0.00 in Snow Light Snow
6:34 PM 17.6 °F -1.9 °F 12.2 °F 79% 29.61 in 0.8 mi NW 29.9 mph 41.4 mph 0.00 in Snow Light Snow
6:51 PM 17.1 °F -3.2 °F 10.9 °F 77% 29.73 in 0.8 mi NW 32.2 mph 49.5 mph 0.00 in Snow Light Snow
7:13 PM 15.8 °F -6.1 °F 10.4 °F 79% 29.63 in 1.0 mi WNW 36.8 mph 46.0 mph 0.00 in Snow Light Snow
7:25 PM 15.8 °F -5.2 °F 8.6 °F 73% 29.64 in 1.5 mi WNW 33.4 mph 43.7 mph 0.00 in Snow Light Snow
7:32 PM 15.8 °F -5.0 °F 8.6 °F 73% 29.64 in 2.5 mi WNW 32.2 mph 41.4 mph 0.00 in Snow Light Snow
7:37 PM 15.8 °F -3.7 °F 8.6 °F 73% 29.64 in 4.0 mi WNW 27.6 mph 41.4 mph 0.00 in Snow Light Snow
7:51 PM 14.0 °F -6.5 °F 7.0 °F 74% 29.78 in 6.0 mi NW 28.8 mph 43.7 mph 0.00 in Snow Light Snow
8:09 PM 12.2 °F -8.6 °F 6.8 °F 79% 29.67 in 5.0 mi NW 27.6 mph 38.0 mph 0.00 in Snow Light Snow
8:23 PM 12.2 °F -8.9 °F 5.0 °F 73% 29.68 in 9.0 mi WNW 28.8 mph 36.8 mph 0.00 in Snow Light Snow
8:51 PM 10.9 °F -9.2 °F 3.9 °F 73% 29.83 in 9.0 mi WNW 24.2 mph 35.7 mph 0.00 in Snow Light Snow
9:28 PM 10.4 °F -8.6 °F 3.2 °F 73% 29.73 in 9.0 mi WNW 20.7 mph 33.4 mph 0.00 in Snow Light Snow
9:51 PM 9.0 °F -13.0 °F 1.9 °F 73% 29.88 in 9.0 mi WNW 27.6 mph 39.1 mph 0.00 in Snow Light Snow
10:07 PM 8.6 °F -13.4 °F 1.4 °F 73% 29.76 in 9.0 mi WNW 27.6 mph 36.8 mph 0.00 in Snow Light Snow
10:39 PM 8.6 °F -11.9 °F -0.4 °F 67% 29.77 in 9.0 mi NW 23.0 mph 35.7 mph 0.00 in Snow Light Snow
10:51 PM 7.0 °F -13.1 °F -0.0 °F 73% 29.91 in 9.0 mi WNW 20.7 mph 34.5 mph 0.00 in Snow Light Snow
11:51 PM 7.0 °F -14.5 °F -0.9 °F 70% 29.91 in 9.0 mi WNW 24.2 mph 33.4 mph 0.00 in Snow Light Snow